Location: Ceske Budejovice
(48.9830°N, 14.4670°E)
Time: 10:44:52
(UTC+02:00)

ISS - Visible Passes

Search period start: 23 September 2023 00:00
Search period end: 03 October 2023 00:00
Orbit: 414 x 422 km, 51.6° (Epoch: 23 September)

Date Brightness Start Highest point End Pass type
(mag) Time Alt. Az. Time Alt. Az. Time Alt. Az.
23 Sep -3.5 20:52:06 10° WNW 20:55:24 57° N 20:55:41 54° NNE visible
24 Sep -3.2 20:04:04 10° WNW 20:07:21 52° N 20:09:28 19° ENE visible
24 Sep -1.4 21:40:54 10° WNW 21:42:23 24° WNW 21:42:23 24° WNW visible
25 Sep -3.8 20:52:53 10° WNW 20:56:09 80° NNW 20:56:09 80° NNW visible
26 Sep -3.6 20:04:49 10° WNW 20:08:09 65° NNE 20:09:54 25° E visible
26 Sep -1.1 21:41:42 10° WNW 21:42:49 18° W 21:42:49 18° W visible
27 Sep -3.4 19:16:43 10° WNW 19:20:02 56° N 19:23:19 10° E visible
27 Sep -3.3 20:53:33 10° WNW 20:56:34 53° SW 20:56:34 53° SW visible
28 Sep -3.8 20:05:24 10° WNW 20:08:46 78° SSW 20:10:21 28° ESE visible
28 Sep -0.7 21:42:47 10° W 21:43:16 12° WSW 21:43:16 12° WSW visible
29 Sep -3.8 19:17:16 10° WNW 19:20:37 80° NNE 19:23:57 10° ESE visible
29 Sep -2.1 20:54:17 10° W 20:57:04 26° SW 20:57:04 26° SW visible
30 Sep -2.7 20:05:57 10° WNW 20:09:05 39° SSW 20:10:54 21° SSE visible
01 Oct -3.3 19:17:41 10° WNW 19:20:58 57° SSW 19:24:15 10° SE visible
01 Oct -1.0 20:55:48 10° WSW 20:57:09 12° SW 20:57:44 12° SW visible
02 Oct -1.4 20:06:45 10° W 20:09:09 18° SW 20:11:32 10° S visible
